Regional Weather Roundup
Issued by NWS Charleston, WV

Home | Current Version | Previous Version | Graphics & Text | Print | Product List | Glossary On
Versions: 1 2 3 4 5 6 7 8 9 10 11 12 13 14 15 16 17 18 19 20 21 22 23 24 25 26 27 28 29 30 31 32 33 34 35 36 37 38 39 40 41 42 43 44 45 46 47 48 49 50
000
ASUS41 KRLX 041210
RWRRLX
West Virginia Regional Weather Roundup
National Weather Service Charleston WV
800 AM EDT FRI SEP 04 2015

Note: "fair" indicates few or no clouds below 12,000 feet with no
significant weather and/or obstructions to visibility.

WVZ003-041300-
Northern Panhandle of West Virginia

CITY           SKY/WX    TMP DP  RH WIND       PRES   REMARKS
WHEELING       PTSUNNY   66  64  93 SE5       30.07R FOG
$$

WVZ009-041300-
Northwest West Virginia

CITY           SKY/WX    TMP DP  RH WIND       PRES   REMARKS
PARKERSBURG    PTSUNNY   66  65  96 S5        30.10R FOG
$$

WVZ006-041300-
Western West Virginia

CITY           SKY/WX    TMP DP  RH WIND       PRES   REMARKS
HUNTINGTON     SUNNY     66  65  96 CALM      30.05R FOG
$$

WVZ015-041300-
West Central West Virginia

CITY           SKY/WX    TMP DP  RH WIND       PRES   REMARKS
CHARLESTON     FOG       67  66  97 CALM      30.07R VSB 1/2
$$

WVZ022-031-041300-
North Central West Virginia

CITY           SKY/WX    TMP DP  RH WIND       PRES   REMARKS
CLARKSBURG     MOSUNNY   64  63  96 CALM      30.10R FOG
MORGANTOWN     PTSUNNY   67  63  87 CALM      30.11R FOG
$$

WVZ025-035-042-045-041300-
Southern West Virginia

CITY           SKY/WX    TMP DP  RH WIND       PRES   REMARKS
BECKLEY        SUNNY     65  62  90 CALM      30.13R FOG
LOGAN          FOG       66  66 100 CALM      30.09R VSB<1/4
BLUEFIELD      SUNNY     67  63  87 SW3       30.16R FOG
LEWISBURG      FOG       64  62  94 CALM      30.13R VSB<1/4
$$

WVZ047-041300-
Northern Mountains of West Virginia

CITY           SKY/WX    TMP DP  RH WIND       PRES   REMARKS
ELKINS         FOG       64  63  96 CALM      30.13R VSB 1/4
$$

WVZ052-041300-
Eastern Panhandle of West Virginia

CITY           SKY/WX    TMP DP  RH WIND       PRES   REMARKS
MARTINSBURG    SUNNY     67  66  97 CALM      30.03R FOG
PETERSBURG     FOG       65  65 100 CALM      30.09R VSB<1/4
$$


USA.gov is the U.S. government's official web portal to all federal, state and local government web resources and services.